User: anonymous   Login
Location: Zagreb
(45.8000°N, 16.0000°E)
Time: 09:26:31
(UTC+01:00)
Language:

deb Explorer IX - Orbit

View from above orbital plane
View from above orbital plane
View from above satellite
View from above satellite

Ground track
Ground track

The orbit data is extracted from the following two-line orbital elements,

1    85U 61004C   20022.14674289 +.00003676 +00000-0 +82034-3 0  9993
2    85 038.7719 052.1753 0384123 238.2700 118.0065 14.20265846910140
Epoch (UTC): 22 January 2020 03:31:18
Eccentricity: 0.0384123
inclination: 38.7719°
perigee height: 548 km
apogee height: 1101 km
right ascension of ascending node: 52.1753°
argument of perigee: 238.2700°
revolutions per day: 14.20265846
mean anomaly at epoch: 118.0065°
orbit number at epoch: 91014

The dashed part of the orbit path shows where the satellite is in the earth's shadow,  

DLR